Notices

What's New in latest Release from April 7th, 2021:

- Updated Glossary, including Speed of Maximum Gust, and Total Hourly Precipitation

- Updated national and regional climate services offices contacts and prices information

- Addition of station inventory lists for 1981-2010, 1971-2000, and 1961-1990 Normals.

If you haven't already, please take our survey and provide feedback about our website: https://eccc.sondage-survey.ca/f/LanguageSelection.aspx?s=442ca660-fcf1-47c0-95a9-59707d6fd709

Hourly Data Report for March 19, 2006

TORONTO CITY
ONTARIO

43°40'00.000" N
79°24'00.000" W
112.50 m
6158355
71508
XTO

Download Data

Hourly Data (March 2006)
Hourly Data Report for March 19, 2006
TIME
LST
Temp Definition
°C
Dew Point Definition
°C
Rel Hum Definition
%
Precip. Amount Definition
mm

Wind Dir Definition
10's deg

Wind Spd Definition
km/h
Visibility Definition
km
Stn Press Definition
kPa
Hmdx Definition


Wind Chill Definition


Weather Definition


00:00 -1.3 -7.0 65   LegendMM LegendMM   100.33     LegendNANA
01:00 -1.3 -6.6 67   LegendMM LegendMM   100.30     LegendNANA
02:00 -1.6 -6.9 67   LegendMM LegendMM   100.26     LegendNANA
03:00 -1.7 -7.1 67   LegendMM LegendMM   100.24     LegendNANA
04:00 -1.7 -6.3 71   LegendMM LegendMM   100.22     LegendNANA
05:00 -1.6 -6.8 68   LegendMM LegendMM   100.23     LegendNANA
06:00 -1.6 -8.6 59   LegendMM LegendMM   100.25     LegendNANA
07:00 -1.7 -8.5 60   LegendMM LegendMM   100.27     LegendNANA
08:00 -1.6 -10.1 52   LegendMM LegendMM   100.29     LegendNANA
09:00 -0.9 -10.6 48   LegendMM LegendMM   100.26     LegendNANA
10:00 0.6 -10.0 45   LegendMM LegendMM   100.30     LegendNANA
11:00 0.2 -9.4 48   LegendMM LegendMM   100.28     LegendNANA
12:00 1.7 -8.9 45   LegendMM LegendMM   100.25     LegendNANA
13:00 2.1 -9.5 42   LegendMM LegendMM   100.23     LegendNANA
14:00 2.2 -9.1 43   LegendMM LegendMM   100.19     LegendNANA
15:00 2.3 -7.0 50   LegendMM LegendMM   100.21     LegendNANA
16:00 1.3 -7.0 54   LegendMM LegendMM   100.26     LegendNANA
17:00 0.9 -7.2 55   LegendMM LegendMM   100.28     LegendNANA
18:00 0.5 -8.0 53   LegendMM LegendMM   100.33     LegendNANA
19:00 -0.1 -7.8 56   LegendMM LegendMM   100.42     LegendNANA
20:00 -1.1 -6.5 67   LegendMM LegendMM   100.47     LegendNANA
21:00 -1.4 -6.8 67   LegendMM LegendMM   100.54     LegendNANA
22:00 -1.5 -6.9 67   LegendMM LegendMM   100.51     LegendNANA
23:00 -1.5 -6.7 68   LegendMM LegendMM   100.55     LegendNANA

Notes on Data Quality.

Legend

  • E = Estimated
  • M = Missing
  • NA = Not Available*
  • [empty] = Indicates an unobserved value
Date modified: